Theta_e
349 342 341 344 344 344 344 344 343 343 343 342 339 338 342 343 342 340 339 340 342 340 341 340 339 338 337 336 336 328 321 326 328 335 338 336 333 337 330 335 337 336 333
349 343 339 342 343 344 344 344 343 342 340 338 334 339 343 341 338 336 337 338 340 338 338 338 337 337 336 336 335 331 329 334 335 339 339 336 334 333 334 338 338 339 334
349 346 339 341 344 344 344 344 341 340 339 334 334 343 343 340 338 335 335 337 338 336 336 336 336 336 335 331 330 330 334 334 335 337 339 336 337 339 339 337 338 337 333
349 347 346 343 344 344 344 342 338 334 335 330 340 344 341 340 337 333 335 336 337 336 335 335 335 335 334 329 325 335 335 335 336 338 335 334 336 336 336 336 337 338 337
348 348 346 344 344 345 343 339 337 333 332 331 342 343 341 340 337 333 335 335 336 336 335 335 334 330 330 326 322 332 333 334 337 334 333 333 335 334 333 328 327 331 334
346 348 343 344 345 343 340 339 336 331 330 334 342 343 342 340 335 326 327 330 332 334 334 332 329 328 327 325 324 328 330 330 332 334 334 332 330 330 328 325 324 324 328
349 346 343 344 344 341 341 337 329 328 331 336 341 343 343 340 337 329 322 322 325 328 328 327 328 327 328 327 326 325 329 329 330 333 333 324 327 331 329 325 323 326 327
347 345 343 344 342 342 340 335 331 332 336 334 337 339 342 337 335 334 324 326 326 326 327 326 326 327 327 327 326 326 329 330 330 332 333 331 326 330 327 321 322 321 323
345 345 345 344 341 341 338 334 329 337 338 338 333 338 341 336 334 334 329 322 326 325 323 323 325 325 326 325 325 325 326 330 329 328 333 332 327 329 325 322 321 320 319
344 344 345 344 341 340 337 336 327 337 339 338 337 334 339 335 334 333 330 328 321 322 323 323 323 323 322 323 323 324 325 330 329 328 330 330 322 327 326 324 321 320 317
343 342 346 344 342 342 339 336 330 331 337 338 339 337 337 336 335 332 337 331 326 321 321 321 322 321 321 323 323 320 323 327 328 328 328 328 321 326 327 327 324 321 319
344 343 346 343 341 340 340 337 333 324 331 336 336 335 335 337 337 336 336 332 329 325 320 321 321 322 324 327 326 325 325 327 326 326 326 325 321 321 331 329 327 323 321
344 345 344 343 341 340 339 338 337 334 329 328 332 330 333 333 333 334 331 327 325 327 327 328 328 331 331 330 327 325 324 324 325 325 324 324 322 319 324 332 329 327 324
343 344 342 343 343 341 340 339 339 338 336 331 329 329 329 329 329 328 330 331 333 334 330 332 331 332 331 331 330 328 326 324 323 323 323 323 322 320 319 327 332 329 327
344 343 340 342 343 342 340 339 340 338 338 336 334 333 332 331 330 327 328 329 330 329 328 328 329 330 331 332 332 330 329 328 327 325 325 324 324 324 322 322 325 332 330
343 343 343 343 344 343 341 339 338 338 338 338 338 336 335 334 332 331 330 328 327 326 326 326 328 332 333 334 334 333 333 332 331 330 330 329 328 326 326 325 324 329 331
342 343 342 341 342 342 341 340 338 339 338 338 339 338 337 335 333 332 332 333 333 329 329 329 331 332 333 334 334 334 334 333 333 333 332 332 331 329 328 327 327 325 329
341 343 342 342 343 341 341 341 339 339 338 338 338 337 338 337 335 334 333 333 335 335 334 334 334 335 335 335 334 334 334 334 333 333 333 333 332 332 330 329 328 328 327
340 343 342 342 342 340 342 341 340 337 338 336 338 339 339 338 337 337 336 336 336 336 337 336 336 336 335 334 334 334 334 334 333 334 334 333 333 332 332 330 330 328 327
339 341 341 343 342 342 341 340 340 340 339 340 339 340 340 339 339 338 338 338 337 336 336 336 335 335 334 335 334 334 334 333 334 334 333 333 333 331 330 330 328 326 327
328 340 341 342 342 341 341 340 340 341 340 340 340 340 339 338 338 338 338 338 337 337 336 335 335 334 334 335 335 333 333 333 334 334 333 333 331 329 328 325 323 324 324
318 328 338 341 341 341 341 341 341 340 340 340 340 340 340 340 339 338 337 337 337 337 336 337 337 335 334 333 334 333 331 329 329 329 331 331 328 327 324 322 322 321 321
318 318 323 336 340 340 341 341 341 341 341 341 341 341 340 340 339 338 337 336 336 336 335 336 335 335 334 333 332 331 330 327 327 327 330 328 326 323 322 322 321 319 319
318 318 317 320 335 337 339 340 340 340 339 338 338 339 339 338 338 336 336 334 334 333 332 331 330 329 328 329 328 329 330 330 325 324 326 325 325 323 322 321 320 318 317
317 317 317 316 318 324 334 338 338 336 334 330 331 331 331 327 322 323 321 319 318 317 319 321 322 323 325 325 325 325 323 325 327 325 324 324 324 323 322 321 318 318 316
316 317 316 316 316 316 317 323 326 329 323 320 318 315 316 316 317 316 314 314 315 316 317 318 319 320 320 321 320 320 321 323 323 322 321 321 323 322 320 318 318 316 314
Wind_Speed
24 28 24 20 17 16 15 15 13 11 12 11 12 14 16 17 16 16 17 16 19 20 19 19 19 18 18 18 18 19 21 21 21 22 22 17 14 14 15 15 15 16 14
26 27 24 22 18 16 15 16 13 12 10 11 13 15 15 16 16 16 16 16 17 17 17 17 18 16 17 17 18 19 20 18 17 19 22 22 17 16 17 18 17 15 15
27 25 23 21 19 16 16 14 12 11 10 12 15 15 16 17 16 16 16 16 17 16 16 16 16 15 15 17 19 20 20 16 14 14 18 18 19 17 18 19 21 18 16
29 25 22 21 19 17 16 13 13 13 14 15 17 16 16 16 15 16 16 16 16 16 16 15 15 14 14 15 18 20 17 14 16 16 16 16 14 13 13 13 15 15 15
25 25 21 21 19 17 15 14 13 13 15 16 15 16 15 15 14 15 16 15 15 16 15 14 14 15 15 15 17 17 16 18 18 13 11 12 10 13 13 11 11 10 10
25 26 21 20 18 16 15 14 12 13 15 17 16 15 15 14 14 14 15 15 15 15 14 13 13 14 14 14 15 16 16 16 14 14 12 8 11 12 12 12 12 11 8
28 24 22 19 17 16 16 13 12 14 15 17 16 15 15 10 12 12 13 14 13 13 12 12 12 13 12 11 11 12 14 14 12 10 5 9 12 12 12 12 13 12 12
26 24 22 18 16 17 14 12 12 16 14 15 13 13 14 12 9 9 11 12 12 11 10 10 10 9 9 8 8 8 9 9 10 7 4 7 8 10 11 12 12 12 12
27 23 21 19 17 16 13 11 12 17 14 14 13 13 15 11 6 6 9 10 9 9 8 7 7 6 5 5 6 7 8 10 10 6 3 5 7 7 9 11 11 11 11
24 23 20 20 18 17 14 10 12 16 15 17 15 15 14 11 6 6 7 8 7 7 6 5 4 4 3 3 3 4 5 7 6 4 3 4 5 4 6 8 10 10 10
23 20 19 19 16 13 12 11 11 14 14 15 14 13 12 8 7 6 7 4 5 5 4 3 2 2 2 4 6 4 3 5 4 2 5 6 6 4 4 6 8 8 9
21 18 20 21 19 16 13 10 10 12 14 13 11 11 11 10 8 10 4 5 4 3 3 2 1 1 3 3 5 5 4 3 3 4 7 8 7 4 4 5 6 7 7
17 15 18 18 18 18 14 12 14 9 11 12 10 8 8 11 9 8 5 4 5 3 2 0 0 3 2 2 3 5 5 7 4 4 7 10 9 6 4 7 7 7 7
18 18 18 18 18 18 14 13 15 9 14 14 10 9 9 9 6 5 9 2 1 4 2 6 4 5 3 6 5 6 7 8 7 6 8 10 10 9 7 6 9 9 7
19 17 18 19 20 17 16 14 10 13 14 12 12 11 9 8 8 8 8 8 7 7 6 7 6 6 7 7 7 9 9 8 10 9 10 11 11 10 9 8 8 10 9
16 16 16 17 14 17 16 16 13 12 13 13 12 12 11 9 9 9 8 8 8 9 8 7 7 7 7 8 9 9 10 10 10 11 12 13 13 13 12 11 11 11 12
12 13 16 17 16 16 17 15 16 13 12 14 13 11 12 12 9 8 9 9 8 8 7 8 8 10 10 11 11 11 12 12 12 12 13 14 14 15 14 12 12 14 14
16 18 19 19 19 18 19 19 18 12 12 10 11 11 12 12 11 11 10 10 9 9 9 9 9 10 11 12 13 13 14 14 15 13 14 15 16 17 15 13 13 14 15
14 18 18 18 19 18 15 16 16 14 11 13 12 11 11 12 12 12 11 10 9 9 10 10 10 11 12 13 14 15 17 18 18 17 16 16 16 17 17 16 14 16 16
14 13 16 18 18 17 16 15 14 12 13 12 12 12 12 12 13 13 12 10 10 10 11 12 12 13 15 16 17 19 19 20 19 18 19 18 17 15 14 11 14 15 13
12 16 18 17 17 16 17 17 16 16 15 14 15 11 13 12 12 13 13 12 11 12 13 12 12 13 15 16 15 18 20 20 19 23 21 19 15 11 12 11 10 10 10
15 14 16 20 19 19 17 16 15 15 16 17 18 16 14 15 16 14 11 12 14 14 14 15 16 16 18 18 13 12 3 8 18 20 22 15 11 7 5 4 6 6 6
18 19 18 17 19 18 18 15 15 14 11 12 9 14 13 13 11 14 14 15 17 17 18 18 19 17 17 20 18 11 3 3 3 3 8 10 6 6 6 8 9 5 6
20 19 19 18 19 19 19 17 19 17 12 10 10 12 14 14 14 15 15 14 14 14 14 15 14 15 15 15 15 15 18 18 3 3 5 8 10 10 9 6 3 1 3
13 19 20 19 19 21 22 19 17 13 9 9 11 10 9 10 9 10 9 10 10 10 11 12 13 12 12 15 16 16 18 18 16 5 4 9 9 8 7 6 5 3 3
13 12 15 17 16 16 15 17 15 16 14 9 7 6 6 6 7 8 8 8 9 9 9 10 10 11 12 13 12 14 16 10 6 9 7 11 9 7 7 5 7 5 4
Wind_Direction
145 149 152 147 143 134 132 126 116 108 99 94 90 99 98 92 84 82 80 85 86 91 90 87 85 80 79 79 77 79 83 87 85 77 62 60 73 63 63 65 48 51 58
148 150 152 150 147 143 134 126 119 114 102 95 99 106 104 93 86 86 89 89 94 93 93 89 83 84 84 82 80 82 88 88 81 76 62 53 75 66 61 49 54 58 60
140 151 152 152 149 143 136 129 121 114 109 105 111 110 104 94 86 87 93 95 97 100 97 88 85 85 84 81 82 88 90 83 72 56 72 58 66 62 60 51 57 66 60
139 144 153 152 149 145 139 130 117 110 111 115 116 111 106 97 88 89 95 100 102 101 95 91 89 86 85 84 86 92 86 69 64 83 84 68 61 59 56 53 51 56 50
137 144 152 150 150 146 139 129 118 114 118 124 117 125 108 104 93 92 97 104 108 102 99 95 90 88 89 89 89 96 81 65 84 80 75 77 63 52 48 44 42 45 46
140 151 150 151 151 145 136 128 120 121 125 131 123 129 119 111 94 94 101 105 109 107 103 98 92 88 92 89 86 92 84 72 68 73 86 54 65 57 50 46 44 43 43
138 142 146 149 149 142 138 129 121 122 128 135 129 121 130 112 94 95 103 105 108 109 107 101 94 89 90 91 86 87 90 86 79 74 52 55 64 57 52 49 47 48 47
130 139 145 150 148 145 139 129 122 129 128 129 134 127 134 120 90 104 106 107 109 111 113 111 103 98 95 91 83 79 86 71 83 75 8 38 58 54 47 44 44 48 47
130 139 147 148 151 148 140 127 128 139 136 139 134 142 140 127 125 114 112 115 119 118 120 117 109 100 91 82 74 71 90 82 76 75 112 27 36 46 39 38 39 41 44
137 138 146 150 151 151 145 133 135 150 142 147 155 150 145 141 152 131 135 131 135 137 132 125 115 100 81 60 51 56 81 83 73 41 244 313 359 23 30 29 31 31 31
128 143 155 149 152 153 157 147 144 161 155 153 152 152 156 167 163 145 152 148 148 154 156 151 135 97 53 50 25 17 69 66 30 327 292 305 334 342 359 10 17 19 21
142 162 159 153 157 161 170 159 149 157 172 165 173 175 158 180 160 186 191 207 194 182 191 196 185 45 61 32 346 4 19 7 291 272 288 295 316 307 306 325 347 357 3
152 162 155 156 170 169 175 168 167 159 156 167 184 181 170 189 186 205 239 238 222 208 221 280 316 43 68 335 284 306 294 282 260 284 275 290 303 297 275 283 307 327 337
174 170 174 171 171 177 178 191 184 169 179 175 182 192 200 188 202 183 213 205 149 229 201 235 291 293 242 284 283 274 277 285 279 265 273 282 293 296 280 256 275 293 304
183 180 182 186 177 183 185 194 215 181 176 183 179 188 194 196 204 193 198 200 210 214 221 226 236 239 258 264 265 268 272 273 276 272 269 278 286 295 285 276 258 261 274
171 177 179 172 184 185 192 193 208 203 194 188 193 189 202 202 204 201 202 207 215 221 224 229 235 250 255 262 263 262 269 269 269 268 267 269 277 287 290 279 271 254 249
199 194 207 202 198 202 199 201 203 211 206 192 189 193 205 214 205 211 208 219 223 223 229 232 242 253 260 263 266 266 266 267 267 268 273 271 272 276 287 288 284 272 255
196 203 201 199 202 197 204 205 207 209 208 199 196 204 205 211 216 214 219 218 218 227 227 234 244 252 258 261 267 271 273 273 273 267 267 268 274 275 278 279 286 285 278
203 193 194 189 192 196 197 195 207 211 205 208 207 203 207 205 218 218 219 224 228 231 237 243 248 259 270 276 285 284 282 280 276 274 275 273 277 276 275 272 282 286 283
195 193 195 197 195 193 191 191 201 207 217 224 210 210 208 210 216 221 225 233 240 248 250 257 268 267 269 274 277 281 280 278 277 271 270 271 270 278 277 269 286 288 287
187 189 195 196 201 197 197 198 202 206 210 221 230 228 214 220 224 223 228 236 249 253 258 266 272 279 278 281 284 285 284 284 283 273 261 260 268 260 269 288 304 300 294
178 195 198 198 200 205 201 200 207 217 226 231 232 226 229 235 235 230 232 240 247 250 253 260 267 274 276 276 275 295 273 280 280 273 265 246 238 256 265 279 271 279 288
184 190 196 204 199 203 202 200 201 200 200 193 185 202 215 223 211 226 235 244 251 254 258 263 268 270 277 279 275 250 293 243 348 285 216 233 233 240 258 260 286 305 294
184 186 190 196 197 193 193 198 202 208 212 229 229 216 215 222 232 236 238 245 252 258 262 268 270 265 264 265 271 265 266 269 268 306 241 220 231 237 244 286 33 36 113
182 185 189 194 199 206 205 197 201 194 201 191 186 197 221 239 239 245 248 249 254 253 251 254 259 260 260 259 260 270 273 276 268 263 264 265 241 210 239 173 171 229 245
194 196 184 190 192 198 200 194 201 196 189 197 202 198 210 233 256 259 260 258 262 262 258 255 259 265 267 266 266 263 262 259 237 231 254 255 251 203 173 163 187 222 267